sat.trackr.live / text

‹ back to catalog

UNKNOWN

NORAD 89395

UNKNOWN UNKNOWN UNKNOWN

§ Identity

Operator
Country
Launch date
Launch site
Launch vehicle
Mass (kg)
RCS (m²)

External: N2YO · Heavens-Above

§ Orbital elements

Epoch: 2026-05-21T08:37:31.213920Z

Period
119.85 min
Inclination
102.3869°
Eccentricity
0.0221902
Mean motion
12.01548929 rev/d
Perigee alt
1,495.3 km
Apogee alt
1,852.6 km
Semi-major
8,052.1 km
B*
4.1029e-3
RAAN
105.8325°
Arg perigee
213.8521°
Mean anomaly
305.3084°
Rev number
54,391

§ Raw data

UNKNOWN1 89395U          26141.35938905  .00000321  00000+0  41029-2 0  99932 89395 102.3869 105.8325 0221902 213.8521 305.3084 12.01548929543913

JSON: /api/v1/satellites/89395 · /tle

For live sub-satellite position, see the globe view (requires WebGL).

§ Visibility from observer

Set your observer location to see the next 7 days of passes ≥ 10°. The values pass through the URL so the page stays shareable.

No JS? Fill the form by hand. The geolocation button needs JavaScript.